Location: Drummondville
(45.8830°N, 72.4830°W)
Time: 19:05:54
(UTC-05:00)

Vanguard 2 - Visible Passes

Search period start: 23 February 2018 00:00
Search period end: 05 March 2018 00:00
Orbit: 553 x 2939 km, 32.9° (Epoch: 23 February)

Date Brightness Start Highest point End Pass type
(mag) Time Alt. Az. Time Alt. Az. Time Alt. Az.
23 Feb 9.6 18:48:51 10° WSW 18:57:19 31° SSW 19:01:57 15° SE visible
23 Feb 10.2 21:01:13 10° WSW 21:03:23 14° SW 21:03:23 14° SW visible
24 Feb 9.6 19:06:55 10° WSW 19:15:04 29° SSW 19:19:11 16° SSE visible
25 Feb 9.7 19:25:05 10° WSW 19:32:44 26° SSW 19:36:25 17° SSE visible
26 Feb 9.8 19:43:27 10° WSW 19:50:19 22° SSW 19:53:41 16° S visible
27 Feb 10.2 17:48:56 10° WSW 18:00:07 37° SSW 18:07:16 10° SE visible
27 Feb 10.1 20:02:03 10° WSW 20:07:49 18° SW 20:10:57 14° S visible
28 Feb 10.2 18:07:03 10° WSW 18:17:51 35° SSW 18:24:51 10° SE visible
28 Feb 10.3 20:21:12 10° WSW 20:25:12 14° SW 20:28:16 10° SSW visible
01 Mar 10.3 18:25:17 10° W 18:35:30 31° SSW 18:42:18 10° SSE visible
02 Mar 10.4 18:43:39 10° W 18:53:03 27° SSW 18:59:32 10° SSE visible
03 Mar 10.5 19:02:15 10° W 19:10:30 22° SW 19:16:28 10° S visible
04 Mar 10.7 19:21:16 10° WSW 19:27:49 17° SW 19:32:55 10° S visible
